User: anonymous   Login
Location: Mentone
(34.5413°N, 85.5351°W)
Time: 07:05:50
(UTC-06:00)
Language:

Okean O Rocket - Orbit

View from above orbital plane
View from above orbital plane
View from above satellite
View from above satellite

Ground track
Ground track

The orbit data is extracted from the following two-line orbital elements,

1 25861U 99039B   15057.48887641  .00000457  00000-0  70474-4 0  9998
2 25861 097.9875 018.5491 0014304 274.3592 196.1614 14.78024296841421
Epoch (UTC): 26 February 2015 11:43:58
Eccentricity: 0.0014304
inclination: 97.9875°
perigee height: 625 km
apogee height: 645 km
right ascension of ascending node: 18.5491°
argument of perigee: 274.3592°
revolutions per day: 14.78024296
mean anomaly at epoch: 196.1614°
orbit number at epoch: 84142

The dashed part of the orbit path shows where the satellite is in the earth's shadow,  

DLR